Location: Emblem
(62.4273°N, 6.4710°E)
Time: 06:16:13
(UTC+02:00)

Vanguard 1 - Pass Details

Date: 08 February 2023
Orbit: 648 x 3832 km, 34.3° (Epoch: 28 March)

Event Time Altitude Azimuth Distance (km) Brightness Sun altitude
Rises 07:11:10 0° 224° (SW) 4,194 13.0 -10.7°
Reaches altitude 10° 07:17:00 10° 190° (S) 3,926 13.2 -10.0°
Maximum altitude 07:19:24 11° 177° (S) 4,130 13.5 -9.8°
Drops below altitude 10° 07:22:05 10° 163° (SSE) 4,524 13.9 -9.5°
Sets 07:31:20 0° 136° (SE) 6,510 15.5 -8.4°
